This is the latest recevied weather packets stored in our database for station/object ac2ev. If no packets are shown the sender has not sent any weather packets the latest 10 day(s).
| Time | Temp. | Humidity | Pressure | Rain* | Wind** | Luminosity | Snow |
|---|---|---|---|---|---|---|---|
| 1788198782 | 20° C | 90% | 1017 hPa | 4.57 mm | - | - | - |
| 1788198483 | 20° C | 90% | 1017 hPa | 4.06 mm | - | - | - |
| 1788198183 | 20° C | 90% | 1016.9 hPa | 3.81 mm | - | - | - |
| 1788197883 | 20.56° C | 90% | 1016.9 hPa | 3.56 mm | - | - | - |
| 1788197582 | 20.56° C | 90% | 1017 hPa | 3.05 mm | - | - | - |
| 1788197283 | 20.56° C | 90% | 1017 hPa | 1.52 mm | - | - | - |
| 1788196983 | 20.56° C | 90% | 1017.1 hPa | 0.51 mm | - | - | - |
| 1788196683 | 20.56° C | 90% | 1017 hPa | 0.51 mm | - | - | - |
| 1788196382 | 20.56° C | 90% | 1017.2 hPa | 0.51 mm | - | - | - |
| 1788196084 | 20.56° C | 90% | 1017.1 hPa | 0.25 mm | - | - | - |
| 1788195783 | 20.56° C | 90% | 1017.2 hPa | 0.25 mm | - | - | - |
| 1788195482 | 20.56° C | 90% | 1017.3 hPa | 0.25 mm | - | - | - |
| 1788195182 | 20.56° C | 90% | 1017.3 hPa | 0.25 mm | - | - | - |
| 1788194883 | 20.56° C | 90% | 1017.4 hPa | 0.25 mm | - | - | - |
| 1788194583 | 20.56° C | 90% | 1017.4 hPa | 0 mm | - | - | - |
| 1788194284 | 20.56° C | 90% | 1017.4 hPa | 0.25 mm | - | - | - |
| 1788193982 | 20.56° C | 90% | 1017.5 hPa | 0.25 mm | - | - | - |
| 1788193685 | 20.56° C | 90% | 1017.5 hPa | 0.25 mm | - | - | - |
| 1788193383 | 20.56° C | 89% | 1017.6 hPa | 0.25 mm | - | - | - |
| 1788193162 | 20.56° C | 89% | 1017.8 hPa | 0.25 mm | - | - | - |
| 1788192782 | 20.56° C | 89% | 1017.8 hPa | 0.51 mm | - | - | - |
| 1788192558 | 20.56° C | 89% | 1017.7 hPa | 0.51 mm | - | - | - |
| 1788192182 | 20.56° C | 90% | 1017.8 hPa | 0.51 mm | - | - | - |
| 1788191876 | 20.56° C | 89% | 1017.7 hPa | 0.51 mm | - | - | - |
| 1788191576 | 20.56° C | 89% | 1017.8 hPa | 0.76 mm | - | - | - |
* Rain latest hour (hover to see other rain measurements)
** Current wind speed in m/s (hover to see current wind gust speed)